Location: Warner Observatory
(35.1353°N, 89.5455°W)
Time: 22:33:01
(UTC-05:00)

Amateur Radio Satellites - All Passes

Search period start: 22 July 2014 22:03
Search period end: 23 July 2014 22:03
Location: Warner Observatory, 35.1353°N, 89.5455°W

Satellite Date Start Highest point End Downlink Frequencies (MHz)
Time Altitude Azimuth
SO-50 22 Jul 22:19:12 22:22:04 16° 47° (NE) 22:24:57 436.795 FM
HO-68 22 Jul 22:21:15 22:27:29 32° 263° (W) 22:33:45 435.675 MHz FM
MaSat-1 22 Jul 22:59:43 23:03:23 78° 294° (WNW) 23:07:46 437.345 MHz
RS-15 22 Jul 23:00:26 23:10:45 42° 49° (NE) 23:21:21 29.354 - 29.394 USB, Beacon 29.352 USB
Oscar 11 22 Jul 23:00:26 23:03:30 19° 265° (W) 23:06:36 145.825 FM, Beacon 2401.500 USB
FUNcube-1 22 Jul 23:01:11 23:05:32 54° 260° (W) 23:09:48 145.950 - 145.970 MHz USB
SO-50 22 Jul 23:58:18 00:03:01 63° 244° (WSW) 00:07:47 436.795 FM
Lituanica SAT-1 23 Jul 00:27:39 00:29:46 60° 317° (NW) 00:31:56 437.275 MHz beacon
UOSAT-12 23 Jul 00:57:09 01:01:32 36° 55° (NE) 01:05:51 437.025 FM, 437.400 FM
Sapphire 23 Jul 01:03:28 01:06:30 15° 104° (ESE) 01:09:32 437.095 MHz 1200 baud AX-25 AFSK
ISS 23 Jul 01:07:01 01:09:56 28° 131° (SE) 01:12:52 145.800 FM
RS-15 23 Jul 01:12:41 01:23:17 54° 249° (WSW) 01:34:20 29.354 - 29.394 USB, Beacon 29.352 USB
PCSat 23 Jul 01:35:29 01:40:19 35° 109° (ESE) 01:45:12 145.825 MHz
Oscar 19 23 Jul 01:43:44 01:47:54 24° 96° (E) 01:52:02 437.125 CW, 437.150 USB
Oscar 16 23 Jul 02:10:16 02:15:15 48° 100° (E) 02:20:13 437.025 USB, Beacon 2401.1428
ITAMSAT 1 23 Jul 02:17:50 02:21:55 23° 95° (E) 02:25:58 435.822 SSB
JAS-1B 23 Jul 02:26:15 02:33:36 25° 90° (E) 02:40:11 435.800 - 435.900 CW/SSB
AO-27 23 Jul 02:34:43 02:39:28 35° 98° (E) 02:44:10 436.795 MHz FM
UOSAT-12 23 Jul 02:37:53 02:41:25 21° 250° (WSW) 02:44:55 437.025 FM, 437.400 FM
Uribyol 2 23 Jul 02:38:26 02:43:17 40° 99° (E) 02:48:05 436.500 FM
OPAL 23 Jul 02:39:38 02:40:33 11° 60° (ENE) 02:41:27 ?
ISS 23 Jul 02:43:49 02:46:39 25° 326° (NNW) 02:49:30 145.800 FM
Sapphire 23 Jul 02:44:02 02:49:21 59° 299° (WNW) 02:54:42 437.095 MHz 1200 baud AX-25 AFSK
AO-Echo 23 Jul 02:52:24 02:57:27 56° 100° (E) 03:02:18 ?
PCSat 23 Jul 03:19:07 03:23:44 28° 305° (NW) 03:28:22 145.825 MHz
Oscar 19 23 Jul 03:22:38 03:27:13 34° 290° (WNW) 03:31:49 437.125 CW, 437.150 USB
TMSAT-1 23 Jul 03:38:50 03:43:51 42° 99° (E) 03:48:50 436.925 FM
Oscar 16 23 Jul 03:50:48 03:54:11 18° 294° (WNW) 03:57:34 437.025 USB, Beacon 2401.1428
ITAMSAT 1 23 Jul 03:56:45 04:01:26 35° 290° (WNW) 04:06:05 435.822 SSB
Gurwin Techsat 1B 23 Jul 03:58:39 04:03:59 87° 284° (WNW) 04:09:17 435.225 FM
AO-7 23 Jul 04:09:23 04:15:36 23° 95° (E) 04:21:45 29.400 - 29.500 MHz
OPAL 23 Jul 04:13:46 04:18:44 80° 255° (WSW) 04:23:42 ?
AO-27 23 Jul 04:14:40 04:18:45 24° 293° (WNW) 04:22:48 436.795 MHz FM
JAS-1B 23 Jul 04:15:16 04:24:48 68° 289° (WNW) 04:33:03 435.800 - 435.900 CW/SSB
Uribyol 2 23 Jul 04:18:39 04:22:26 21° 294° (WNW) 04:26:13 436.500 FM
AO-Echo 23 Jul 04:32:47 04:35:39 15° 296° (WNW) 04:38:29 ?
Uosat F 23 Jul 04:43:38 04:48:19 39° 99° (E) 04:52:58 435.120 FM
TMSAT-1 23 Jul 05:19:34 05:23:26 21° 294° (WNW) 05:27:17 436.925 FM
AO-7 23 Jul 06:00:38 06:08:52 67° 291° (WNW) 06:17:03 29.400 - 29.500 MHz
JAS-1B 23 Jul 06:08:41 06:13:16 15° 309° (NW) 06:17:41 435.800 - 435.900 CW/SSB
JAS-2 23 Jul 06:19:32 06:24:09 23° 92° (E) 06:28:25 435.800 - 435.900 CW/SSB, 435.910 FM
Uosat F 23 Jul 06:23:08 06:26:49 21° 293° (WNW) 06:30:28 435.120 FM
STRAND 1 23 Jul 06:26:20 06:31:07 40° 71° (ENE) 06:35:54 ?
Hamsat 23 Jul 06:35:59 06:40:05 43° 99° (E) 06:44:11 145.90 MHz
KITSAT 1 23 Jul 06:37:52 06:44:59 35° 107° (ESE) 06:52:06 435.175 FM
Lituanica SAT-1 23 Jul 06:44:18 06:45:29 13° 33° (NNE) 06:46:40 437.275 MHz beacon
PANSAT 23 Jul 07:17:59 07:20:18 15° 162° (SSE) 07:22:37 not established
MaSat-1 23 Jul 07:22:10 07:25:22 16° 53° (NE) 07:28:31 437.345 MHz
Oscar 10/S400 23 Jul 07:29:31 08:45:33 26° 257° (WSW) 11:36:27 145.825 - 145.975 CW/USB, Beacon 145.810 USB
ISS 23 Jul 07:39:03 07:40:49 13° 27° (NNE) 07:42:34 145.800 FM
AO-7 23 Jul 07:56:54 08:00:05 13° 310° (NW) 08:03:16 29.400 - 29.500 MHz
JAS-2 23 Jul 08:03:44 08:09:30 42° 291° (WNW) 08:14:40 435.800 - 435.900 CW/SSB, 435.910 FM
STRAND 1 23 Jul 08:06:39 08:10:24 20° 265° (W) 08:14:10 ?
Hamsat 23 Jul 08:13:28 08:15:39 14° 293° (WNW) 08:17:50 145.90 MHz
Lituanica SAT-1 23 Jul 08:16:37 08:18:24 21° 228° (SW) 08:20:10 437.275 MHz beacon
SO-67 23 Jul 08:18:40 08:22:07 63° 283° (WNW) 08:25:32 435.3500 MHz FM
KITSAT 1 23 Jul 08:32:23 08:40:06 47° 304° (NW) 08:47:52 435.175 FM
PANSAT 23 Jul 08:56:39 08:59:59 28° 174° (S) 09:03:19 not established
MaSat-1 23 Jul 08:57:59 09:03:17 68° 250° (WSW) 09:08:17 437.345 MHz
Saudisat 1A 23 Jul 09:07:52 09:12:15 72° 117° (ESE) 09:16:40 436.775 MHz
ISS 23 Jul 09:14:34 09:17:57 84° 223° (SW) 09:21:17 145.800 FM
HO-68 23 Jul 09:51:16 09:58:20 60° 102° (ESE) 10:05:20 435.675 MHz FM
PCSat 23 Jul 10:27:23 10:30:44 16° 49° (NE) 10:34:05 145.825 MHz
KITSAT 1 23 Jul 10:35:50 10:37:48 11° 328° (NNW) 10:39:47 435.175 FM
PANSAT 23 Jul 10:36:28 10:39:46 27° 187° (S) 10:43:03 not established
Oscar 11 23 Jul 10:49:46 10:54:06 84° 283° (WNW) 10:58:26 145.825 FM, Beacon 2401.500 USB
Saudisat 1A 23 Jul 10:50:27 10:52:19 12° 314° (NW) 10:54:11 436.775 MHz
FUNcube-1 23 Jul 10:53:47 10:57:34 33° 98° (E) 11:01:22 145.950 - 145.970 MHz USB
Sapphire 23 Jul 11:35:11 11:40:31 55° 61° (ENE) 11:45:48 437.095 MHz 1200 baud AX-25 AFSK
HO-68 23 Jul 11:40:05 11:45:28 24° 298° (WNW) 11:50:51 435.675 MHz FM
PCSat 23 Jul 12:09:15 12:14:39 68° 247° (WSW) 12:20:00 145.825 MHz
PANSAT 23 Jul 12:17:21 12:19:26 14° 199° (SSW) 12:21:31 not established
FUNcube-1 23 Jul 12:31:07 12:33:41 16° 292° (WNW) 12:36:15 145.950 - 145.970 MHz USB
Oscar 19 23 Jul 12:57:46 13:01:56 26° 68° (ENE) 13:06:06 437.125 CW, 437.150 USB
JAS-1B 23 Jul 13:07:44 13:13:04 18° 54° (NE) 13:18:44 435.800 - 435.900 CW/SSB
Sapphire 23 Jul 13:20:05 13:23:25 17° 256° (WSW) 13:26:44 437.095 MHz 1200 baud AX-25 AFSK
RS-15 23 Jul 13:21:05 13:30:39 34° 106° (ESE) 13:39:58 29.354 - 29.394 USB, Beacon 29.352 USB
Oscar 16 23 Jul 13:24:08 13:29:03 50° 73° (ENE) 13:34:00 437.025 USB, Beacon 2401.1428
ITAMSAT 1 23 Jul 13:32:49 13:37:07 27° 68° (ENE) 13:41:25 435.822 SSB
Gurwin Techsat 1B 23 Jul 13:40:37 13:42:34 12° 62° (ENE) 13:44:30 435.225 FM
AO-27 23 Jul 13:49:43 13:54:33 40° 71° (ENE) 13:59:24 436.795 MHz FM
Uribyol 2 23 Jul 13:53:08 13:58:04 45° 72° (ENE) 14:02:59 436.500 FM
AO-Echo 23 Jul 14:01:36 14:06:40 52° 73° (ENE) 14:11:50 ?
SO-50 23 Jul 14:10:10 14:14:37 87° 299° (WNW) 14:19:10 436.795 FM
KITSAT 1 23 Jul 14:36:24 14:39:04 12° 33° (NNE) 14:41:43 435.175 FM
Oscar 19 23 Jul 14:36:36 14:41:06 31° 263° (W) 14:45:38 437.125 CW, 437.150 USB
JAS-1B 23 Jul 14:53:37 15:01:50 81° 74° (ENE) 15:11:26 435.800 - 435.900 CW/SSB
TMSAT-1 23 Jul 14:56:24 15:01:28 48° 72° (ENE) 15:06:33 436.925 FM
AO-7 23 Jul 15:05:20 15:11:47 26° 59° (ENE) 15:18:14 29.400 - 29.500 MHz
Oscar 16 23 Jul 15:05:36 15:08:38 16° 267° (W) 15:11:41 437.025 USB, Beacon 2401.1428
UOSAT-12 23 Jul 15:06:05 15:09:36 22° 110° (ESE) 15:13:11 437.025 FM, 437.400 FM
ITAMSAT 1 23 Jul 15:11:48 15:16:26 32° 263° (W) 15:21:05 435.822 SSB
Gurwin Techsat 1B 23 Jul 15:16:31 15:21:49 77° 258° (WSW) 15:27:09 435.225 FM
AO-27 23 Jul 15:30:15 15:34:09 21° 265° (W) 15:38:03 436.795 MHz FM
RS-15 23 Jul 15:31:21 15:42:20 60° 304° (NW) 15:53:08 29.354 - 29.394 USB, Beacon 29.352 USB
Uribyol 2 23 Jul 15:34:08 15:37:41 19° 266° (W) 15:41:16 436.500 FM
AO-Echo 23 Jul 15:42:27 15:45:41 16° 268° (W) 15:48:58 ?
Uosat F 23 Jul 15:53:47 15:58:26 39° 71° (ENE) 16:03:06 435.120 FM
SO-50 23 Jul 15:55:31 15:55:52 10° 317° (NW) 15:56:14 436.795 FM
OPAL 23 Jul 16:26:58 16:31:34 35° 100° (E) 16:36:12 ?
KITSAT 1 23 Jul 16:28:47 16:36:37 51° 57° (ENE) 16:44:22 435.175 FM
JAS-2 23 Jul 16:31:39 16:32:59 11° 56° (ENE) 16:34:19 435.800 - 435.900 CW/SSB, 435.910 FM
TMSAT-1 23 Jul 16:38:08 16:41:36 18° 267° (W) 16:45:04 436.925 FM
UOSAT-12 23 Jul 16:45:21 16:49:31 34° 306° (NW) 16:53:47 437.025 FM, 437.400 FM
JAS-1B 23 Jul 16:47:40 16:53:23 20° 273° (W) 16:59:41 435.800 - 435.900 CW/SSB
AO-7 23 Jul 16:55:35 17:03:52 67° 256° (WSW) 17:12:12 29.400 - 29.500 MHz
Hamsat 23 Jul 17:27:07 17:30:14 21° 70° (ENE) 17:33:22 145.90 MHz
Uosat F 23 Jul 17:33:37 17:37:18 20° 265° (W) 17:41:01 435.120 FM
Saudisat 1A 23 Jul 17:38:12 17:41:46 23° 52° (NE) 17:45:19 436.775 MHz
Oscar 10/S400 23 Jul 17:48:17 18:02:29 19° 147° (SSE) 18:15:10 145.825 - 145.975 CW/USB, Beacon 145.810 USB
RS-15 23 Jul 17:50:45 17:57:36 18° 332° (NNW) 18:04:28 29.354 - 29.394 USB, Beacon 29.352 USB
OPAL 23 Jul 18:06:15 18:10:14 24° 294° (WNW) 18:14:15 ?
JAS-2 23 Jul 18:08:55 18:16:36 61° 72° (ENE) 18:24:06 435.800 - 435.900 CW/SSB, 435.910 FM
KITSAT 1 23 Jul 18:24:45 18:31:38 32° 254° (WSW) 18:38:29 435.175 FM
STRAND 1 23 Jul 18:41:17 18:44:37 17° 94° (E) 18:47:56 ?
SO-67 23 Jul 18:49:14 18:52:01 23° 72° (ENE) 18:54:49 435.3500 MHz FM
Hamsat 23 Jul 19:02:33 19:06:02 26° 264° (W) 19:09:33 145.90 MHz
Saudisat 1A 23 Jul 19:17:29 19:21:21 31° 247° (WSW) 19:25:11 436.775 MHz
JAS-2 23 Jul 19:55:40 20:01:50 25° 267° (W) 20:07:58 435.800 - 435.900 CW/SSB, 435.910 FM
RS-15 23 Jul 20:12:56 20:16:50 12° 11° (N) 20:20:44 29.354 - 29.394 USB, Beacon 29.352 USB
HO-68 23 Jul 20:16:50 20:23:02 33° 65° (ENE) 20:29:13 435.675 MHz FM
STRAND 1 23 Jul 20:19:07 20:23:59 46° 288° (WNW) 20:28:49 ?
SO-67 23 Jul 20:22:59 20:25:03 15° 266° (W) 20:27:08 435.3500 MHz FM
Oscar 11 23 Jul 21:41:35 21:45:44 49° 74° (ENE) 21:49:54 145.825 FM, Beacon 2401.500 USB
FUNcube-1 23 Jul 21:47:50 21:51:03 20° 70° (ENE) 21:54:13 145.950 - 145.970 MHz USB
